Location: Votelez
(50.0000°N, 15.0000°E)
Time: 21:43:55
(UTC+01:00)

ARIANE 6 FM1 Upper Stage - Pass Details

Date: 15 February 2026
Orbit: 523 x 607 km, 62.0° (Epoch: 13 March)

Event Time Altitude Azimuth Distance (km) Brightness Sun altitude
Rises 20:16:58 0° 306° (NW) 2,660 7.2 -29.1°
Reaches altitude 10° 20:19:26 10° 292° (WNW) 1,768 6.1 -29.5°
Enters shadow 20:22:00 23° 254° (WSW) 1,153 4.7 -29.9°
